Williamtown, Australia

2:20 AM AEST on May 01, 2017 (GMT +1000)
Williamtown Military

Weather History for YWLM - October, 2013

Change the Weather History Date:

Monday, October 7, 2013

  Actual Average Record
Temperature  
Mean Temperature 60 °F -  
Max Temperature 69 °F - - ()
Min Temperature 52 °F - - ()
Degree Days  
Heating Degree Days 4    
Growing Degree Days 10 (Base 50)    
Moisture  
Dew Point 50 °F    
Average Humidity 57    
Maximum Humidity 83    
Minimum Humidity 37    
Precipitation  
Precipitation 0.00 in - - ()
Sea Level Pressure  
Sea Level Pressure 29.81 in    
Wind  
Wind Speed 12 mph ()    
Max Wind Speed 23 mph    
Max Gust Speed 34 mph    
Visibility 6.7 miles    
Events      
T = Trace of Precipitation, MM = Missing Value Source: Averaged Metar Reports

Daily Weather History Graph

Daily Weather History Graph

Search for Another Location

Airport or City:

Trip Planner

Search our weather history database for the weather conditions in past years. The results will help you decide how hot, cold, wet, or windy it might be!

Date:

Astronomy

Oct. 07, 2013 Rise Set
Actual Time 6:22 AM AEDT 6:59 PM AEDT
Civil Twilight 5:57 AM AEDT 7:23 PM AEDT
Nautical Twilight 5:28 AM AEDT 7:53 PM AEDT
Astronomical Twilight 4:58 AM AEDT 8:23 PM AEDT
Moon 7:32 AM AEDT (10/7) 9:18 PM AEDT (10/7)
Length of Visible Light 13h 26m
Length of Day
12h 36m
Waxing Crescent, 5% of the Moon is Illuminated
Oct 7
Waxing Crescent
Oct 12
First Quarter
Oct 19
Full
Oct 27
Last Quarter
Nov 3
New

Hourly Weather History & Observations

Time (AEDT) Temp. Dew Point Humidity Pressure Visibility Wind Dir Wind Speed Gust Speed Precip Events Conditions
12:00 AM 59 °F 49 °F 59% 29.69 in - Calm Calm - -  
12:00 AM 59.0 °F 48.2 °F 67% 29.68 in 6.2 mi Calm Calm - N/A   Unknown
12:30 AM 59.0 °F 48.2 °F 67% 29.68 in 6.2 mi Calm Calm - N/A   Unknown
1:00 AM 57.2 °F 46.4 °F 67% 29.68 in 6.2 mi East 4.6 mph - N/A   Unknown
1:30 AM 53.6 °F 46.4 °F 77% 29.68 in 6.2 mi SW 3.5 mph - N/A   Unknown
2:00 AM 55 °F 46 °F 63% 29.68 in - NW 4.6 mph - -  
2:00 AM 55.4 °F 46.4 °F 72% 29.65 in 6.2 mi NW 4.6 mph - N/A   Unknown
2:30 AM 53.6 °F 44.6 °F 72% 29.65 in 6.2 mi NW 8.1 mph - N/A   Unknown
3:00 AM 57 °F 44 °F 52% 29.68 in - WNW 8.1 mph - -  
3:00 AM 57.2 °F 44.6 °F 63% 29.65 in 6.2 mi WNW 8.1 mph - N/A   Unknown
3:30 AM 59.0 °F 39.2 °F 48% 29.68 in 6.2 mi West 9.2 mph - N/A   Unknown
4:00 AM 64.4 °F 59.0 °F 83% 29.71 in 6.2 mi SSW 12.7 mph - N/A   Unknown
4:30 AM 66.2 °F 60.8 °F 83% 29.71 in 6.2 mi SSW 15.0 mph - N/A   Unknown
5:00 AM 65 °F 58 °F 73% 29.73 in - SSW 12.7 mph - -  
5:00 AM 66.2 °F 59.0 °F 78% 29.71 in 6.2 mi SSW 12.7 mph - N/A   Unknown
5:30 AM 64.4 °F 57.2 °F 77% 29.74 in 6.2 mi SSW 16.1 mph - N/A   Unknown
5:41 AM 64.4 °F 53.6 °F 68% 29.74 in 6.2 mi SSW 18.4 mph 29.9 mph N/A   Unknown
6:00 AM 65 °F 52 °F 52% 29.77 in 12 mi SSW 17.3 mph - -   Haze
6:00 AM 64.4 °F 51.8 °F 64% 29.74 in 6.2 mi SSW 17.3 mph - N/A   Partly Cloudy
6:16 AM 64.4 °F 51.8 °F 64% 29.77 in 6.2 mi SSW 17.3 mph 28.8 mph N/A   Partly Cloudy
6:30 AM 64.4 °F 50.0 °F 59% 29.77 in 6.2 mi SSW 18.4 mph - N/A   Partly Cloudy
7:00 AM 64.4 °F 50.0 °F 59% 29.80 in 6.2 mi SSW 18.4 mph - N/A   Partly Cloudy
7:06 AM 64.4 °F 50.0 °F 59% 29.80 in 6.2 mi SSW 20.7 mph 34.5 mph N/A   Unknown
7:30 AM 66.2 °F 50.0 °F 56% 29.80 in 6.2 mi SSW 21.9 mph - N/A   Partly Cloudy
7:45 AM 66.2 °F 48.2 °F 52% 29.80 in 6.2 mi SSW 19.6 mph 32.2 mph N/A   Partly Cloudy
8:00 AM 66 °F 49 °F 43% 29.83 in - SSW 20.7 mph - -  
8:00 AM 66.2 °F 48.2 °F 52% 29.83 in 6.2 mi SSW 20.7 mph - N/A   Partly Cloudy
8:30 AM 68.0 °F 48.2 °F 49% 29.83 in 6.2 mi SSW 19.6 mph - N/A   Partly Cloudy
9:00 AM 68 °F 48 °F 37% 29.86 in 12 mi South 19.6 mph - -   Haze
9:00 AM 68.0 °F 48.2 °F 49% 29.83 in 6.2 mi South 19.6 mph - N/A   Partly Cloudy
9:30 AM 68.0 °F 48.2 °F 49% 29.83 in 6.2 mi South 20.7 mph - N/A   Partly Cloudy
10:00 AM 69.8 °F 50.0 °F 49% 29.86 in 6.2 mi South 20.7 mph - N/A   Partly Cloudy
10:30 AM 69.8 °F 53.6 °F 56% 29.86 in 6.2 mi South 18.4 mph - N/A   Partly Cloudy
11:00 AM 69 °F 51 °F 43% 29.87 in - South 20.7 mph - -  
11:00 AM 68.0 °F 51.8 °F 56% 29.86 in 6.2 mi South 20.7 mph - N/A   Partly Cloudy
11:30 AM 69.8 °F 53.6 °F 56% 29.86 in 6.2 mi South 19.6 mph - N/A   Scattered Clouds
12:00 PM 69 °F 53 °F 46% 29.88 in 16 mi SSW 21.9 mph - -   Haze
12:00 PM 68.0 °F 53.6 °F 60% 29.86 in 6.2 mi SSW 21.9 mph - N/A   Scattered Clouds
12:30 PM 68.0 °F 51.8 °F 56% 29.86 in 6.2 mi South 18.4 mph - N/A   Partly Cloudy
1:00 PM 69.8 °F 51.8 °F 53% 29.86 in 6.2 mi South 23.0 mph - N/A   Partly Cloudy
1:30 PM 68.0 °F 50.0 °F 52% 29.86 in 6.2 mi South 21.9 mph - N/A   Partly Cloudy
2:00 PM 69 °F 52 °F 44% 29.86 in - South 20.7 mph - -  
2:00 PM 68.0 °F 51.8 °F 56% 29.86 in 6.2 mi South 20.7 mph - N/A   Scattered Clouds
2:30 PM 68.0 °F 50.0 °F 52% 29.83 in 6.2 mi SSE 20.7 mph - N/A   Scattered Clouds
3:00 PM 68 °F 50 °F 43% 29.85 in 12 mi SSE 20.7 mph - -   Haze
3:00 PM 68.0 °F 50.0 °F 52% 29.83 in 6.2 mi SSE 20.7 mph - N/A   Scattered Clouds
3:30 PM 68.0 °F 50.0 °F 52% 29.83 in - SSE 21.9 mph - N/A   Mostly Cloudy
4:00 PM 66.2 °F 48.2 °F 52% 29.83 in - SSE 20.7 mph - N/A   Mostly Cloudy
4:30 PM 66.2 °F 48.2 °F 52% 29.83 in - SSE 21.9 mph - N/A   Mostly Cloudy
5:00 PM 67 °F 47 °F 38% 29.85 in - South 20.7 mph - -  
5:00 PM 66.2 °F 48.2 °F 52% 29.83 in 6.2 mi South 20.7 mph - N/A   Unknown
5:30 PM 66.2 °F 48.2 °F 52% 29.83 in 6.2 mi SSE 18.4 mph - N/A   Unknown
6:00 PM 65 °F 47 °F 42% 29.86 in - SSE 19.6 mph - -  
6:00 PM 66.2 °F 48.2 °F 52% 29.86 in 6.2 mi SSE 19.6 mph - N/A   Unknown
6:30 PM 64.4 °F 48.2 °F 56% 29.86 in 6.2 mi SSE 15.0 mph - N/A   Scattered Clouds
7:00 PM 64.4 °F 46.4 °F 52% 29.86 in 6.2 mi South 11.5 mph - N/A   Unknown
7:30 PM 64.4 °F 50.0 °F 59% 29.89 in 6.2 mi South 13.8 mph - N/A   Mostly Cloudy
8:00 PM 63 °F 47 °F 46% 29.91 in - South 11.5 mph - -  
8:00 PM 62.6 °F 48.2 °F 59% 29.89 in 6.2 mi South 11.5 mph - N/A   Mostly Cloudy
8:30 PM 64.4 °F 50.0 °F 59% 29.92 in 6.2 mi SE 12.7 mph - N/A   Mostly Cloudy
9:00 PM 64 °F 50 °F 49% 29.94 in - SSE 10.4 mph - -   Overcast
9:00 PM 64.4 °F 50.0 °F 59% 29.92 in 6.2 mi SSE 10.4 mph - N/A   Overcast
9:30 PM 64.4 °F 48.2 °F 56% 29.92 in 6.2 mi SE 11.5 mph - N/A   Overcast
10:00 PM 62.6 °F 51.8 °F 68% 29.92 in 6.2 mi ESE 10.4 mph - N/A   Overcast
10:30 PM 64.4 °F 50.0 °F 59% 29.92 in 6.2 mi ESE 8.1 mph - N/A   Overcast
11:00 PM 63 °F 50 °F 53% 29.94 in - ESE 8.1 mph - -  
11:00 PM 62.6 °F 50.0 °F 63% 29.92 in 6.2 mi ESE 8.1 mph - N/A   Overcast
11:30 PM 62.6 °F 50.0 °F 63% 29.92 in 6.2 mi ESE 8.1 mph - N/A   Overcast